Вернуться в каталог

STARLINK-4436

АктивенСвязьSSO
NORAD 53479·PAYLOAD·🇺🇸 United States

Запущен Aug 12, 2022 с Vandenberg Space Force Base

Loading…

Ближайшие Пролёты (ближайшие 24 часа)

TLE

СвежийSource: CelesTrak SupGP

Эпоха: Sep 14, 2026, 20:59 UTC

1 53479C 22099Q   26257.87479167 -.00021892  00000+0 -67939-3 0  2578
2 53479  97.2865  15.5605 0000919 100.8545 193.2751 15.33459427    13

Отслеживайте STARLINK-4436 в реальном времени с AllMySat

Download on the App Store